EA6AMI-5 Weather Reports


time (UTC)temp
C
wind
direction
speed
KPH
gust
KPH
rain 1hr
cm
rain 24hr
cm
rain mn
cm
humidity
%
barometer
mb
20260505200004 16 205 6.4 12.9 0.00 0.00 0.00 89 1011.6
20260505195403 16 216 6.4 12.9 0.00 0.00 0.00 88 1011.3
20260505194503 17 216 6.4 12.9 0.00 0.00 0.00 87 1011.3
20260505193603 17 218 4.8 16.1 0.00 0.00 0.00 86 1011.1
20260505192703 17 218 6.4 12.9 0.00 0.00 0.00 85 1011.0
20260505191803 17 220 6.4 14.5 0.00 0.00 0.00 86 1011.0
20260505190903 17 213 8.0 14.5 0.00 0.00 0.00 86 1010.9
20260505190004 17 205 6.4 12.9 0.00 0.00 0.00 85 1010.8
20260505185403 17 194 6.4 9.7 0.00 0.00 0.00 85 1010.9
20260505184503 17 215 6.4 12.9 0.00 0.00 0.00 85 1010.5
20260505183603 17 221 8.0 14.5 0.00 0.00 0.00 84 1010.5
20260505182703 17 204 8.0 14.5 0.00 0.00 0.00 83 1010.5
20260505181803 17 209 6.4 12.9 0.00 0.00 0.00 81 1010.7
20260505180903 18 199 6.4 14.5 0.00 0.00 0.00 80 1010.4
20260505180004 18 207 8.0 14.5 0.00 0.00 0.00 79 1010.6
20260505175404 18 208 8.0 17.7 0.00 0.00 0.00 78 1010.6
20260505174503 18 200 6.4 14.5 0.00 0.00 0.00 77 1010.4
20260505173603 19 190 8.0 12.9 0.00 0.00 0.00 75 1010.3
20260505172703 19 197 9.7 17.7 0.00 0.00 0.00 75 1010.1
20260505171803 19 196 9.7 17.7 0.00 0.00 0.00 74 1010.4
20260505170904 19 195 9.7 17.7 0.00 0.00 0.00 73 1010.5
20260505170004 19 209 8.0 16.1 0.00 0.00 0.00 73 1010.3
20260505165404 19 213 8.0 14.5 0.00 0.00 0.00 73 1010.6
20260505164504 18 209 8.0 14.5 0.00 0.00 0.00 74 1010.5
20260505163603 19 206 9.7 17.7 0.00 0.00 0.00 74 1010.6
20260505162703 18 196 9.7 17.7 0.00 0.00 0.00 73 1010.5
20260505161803 19 195 9.7 19.3 0.00 0.00 0.00 72 1010.6
20260505160903 18 210 8.0 17.7 0.00 0.00 0.00 73 1010.7
20260505152703 18 205 9.7 19.3 0.00 0.00 0.00 74 1010.9
20260505151803 18 204 9.7 22.5 0.00 0.00 0.00 74 1011.0
20260505150903 18 190 11.3 20.9 0.00 0.00 0.00 75 1010.8
20260505124504 20 187 11.3 27.4 0.00 0.00 0.00 61 1011.4
20260505123603 21 196 11.3 24.1 0.00 0.00 0.00 60 1011.6
20260505122703 21 206 9.7 17.7 0.00 0.00 0.00 59 1011.6
20260505121803 21 190 11.3 22.5 0.00 0.00 0.00 60 1011.7
20260505120904 21 196 9.7 19.3 0.00 0.00 0.00 59 1011.7
20260505120004 21 193 8.0 19.3 0.00 0.00 0.00 58 1011.6
20260505115404 21 194 8.0 20.9 0.00 0.00 0.00 60 1011.7
20260505114503 20 185 9.7 27.4 0.00 0.00 0.00 58 1011.8
20260505113604 20 179 9.7 20.9 0.00 0.00 0.00 60 1012.0
20260505112703 20 184 11.3 22.5 0.00 0.00 0.00 59 1012.1
20260505111803 20 179 9.7 19.3 0.00 0.00 0.00 61 1012.3
20260505110904 20 193 9.7 22.5 0.00 0.00 0.00 64 1012.3
20260505101803 19 186 8.0 17.7 0.00 0.00 0.00 65 1012.1
20260505100903 20 185 11.3 20.9 0.00 0.00 0.00 64 1012.2
20260505100004 19 192 9.7 17.7 0.00 0.00 0.00 65 1012.3
20260505095403 19 196 9.7 19.3 0.00 0.00 0.00 65 1012.4
20260505094503 18 206 8.0 14.5 0.00 0.00 0.00 68 1012.3
20260505093603 20 209 8.0 19.3 0.00 0.00 0.00 65 1012.2
20260505092703 19 201 8.0 17.7 0.00 0.00 0.00 64 1012.3
20260505091803 18 199 8.0 16.1 0.00 0.00 0.00 68 1012.4
20260505090903 18 209 8.0 16.1 0.00 0.00 0.00 68 1012.2
20260505090003 20 190 8.0 16.1 0.00 0.00 0.00 66 1012.2
20260505085403 19 184 9.7 17.7 0.00 0.00 0.00 67 1012.0
20260505084504 18 179 11.3 19.3 0.00 0.00 0.00 70 1012.1
20260505083603 18 192 9.7 20.9 0.00 0.00 0.00 69 1012.0
20260505082703 18 203 8.0 14.5 0.00 0.00 0.00 74 1012.2
20260505081803 18 180 8.0 16.1 0.00 0.00 0.00 73 1012.3
20260505080903 18 180 8.0 17.7 0.00 0.00 0.00 73 1012.4
20260505080004 18 198 8.0 14.5 0.00 0.00 0.00 75 1012.3
20260505075403 17 181 8.0 14.5 0.00 0.00 0.00 76 1012.3
20260505074503 17 166 8.0 14.5 0.00 0.00 0.00 77 1012.2
20260505073603 17 171 3.2 9.7 0.00 0.00 0.00 78 1012.3
20260505072703 17 187 6.4 12.9 0.00 0.00 0.00 79 1012.3
20260505071803 17 190 6.4 12.9 0.00 0.00 0.00 78 1012.4
20260505070903 17 174 8.0 14.5 0.00 0.00 0.00 79 1012.4
20260505070004 17 167 8.0 17.7 0.00 0.00 0.00 78 1012.3
20260505065403 17 166 8.0 17.7 0.00 0.00 0.00 79 1012.1
20260505064503 17 179 6.4 14.5 0.00 0.00 0.00 79 1012.4
20260505063603 17 162 8.0 14.5 0.00 0.00 0.00 78 1012.5
20260505062704 17 160 4.8 9.7 0.00 0.00 0.00 79 1012.2
20260505061803 17 176 4.8 12.9 0.00 0.00 0.00 80 1012.2
20260505060903 17 132 4.8 8.0 0.00 0.00 0.00 81 1012.0
20260505060003 16 154 4.8 9.7 0.00 0.00 0.00 83 1012.3
20260505055403 16 166 4.8 9.7 0.00 0.00 0.00 83 1012.3
20260505054503 16 154 4.8 9.7 0.00 0.00 0.00 83 1012.4
20260505053603 16 153 3.2 8.0 0.00 0.00 0.00 83 1012.2
20260505052703 16 198 4.8 11.3 0.00 0.00 0.00 83 1012.1
20260505051803 15 205 3.2 8.0 0.00 0.00 0.00 83 1012.2
20260505050903 15 178 3.2 11.3 0.00 0.00 0.00 83 1012.1
20260505040903 16 190 3.2 8.0 0.00 0.00 0.00 84 1012.3
20260505040004 16 211 4.8 8.0 0.00 0.00 0.00 84 1012.3
20260505035403 16 211 3.2 9.7 0.00 0.00 0.00 84 1012.3
20260505034503 15 208 3.2 9.7 0.00 0.00 0.00 84 1012.4
20260505033603 15 227 3.2 11.3 0.00 0.00 0.00 84 1012.4
20260505032703 15 204 4.8 8.0 0.00 0.00 0.00 84 1012.6
20260505031803 15 299 3.2 9.7 0.00 0.00 0.00 84 1012.4
20260505030903 15 236 3.2 11.3 0.00 0.00 0.00 83 1012.5
20260505030003 16 210 4.8 16.1 0.00 0.00 0.00 84 1012.6
20260505025403 15 212 6.4 16.1 0.00 0.00 0.00 85 1012.7
20260505024504 16 214 4.8 9.7 0.00 0.00 0.00 85 1012.7
20260505023603 16 217 4.8 14.5 0.00 0.00 0.00 85 1012.6
20260505022704 16 246 6.4 14.5 0.00 0.00 0.00 85 1012.5
20260505021803 16 222 4.8 12.9 0.00 0.00 0.00 84 1012.8
20260505020903 16 212 6.4 16.1 0.00 0.00 0.00 84 1012.8
20260505020004 16 219 6.4 14.5 0.00 0.00 0.00 85 1013.0
20260505015403 16 213 8.0 20.9 0.00 0.00 0.00 85 1013.1
20260505014503 16 226 9.7 20.9 0.00 0.00 0.00 86 1013.1
20260505013603 16 229 9.7 24.1 0.00 0.00 0.00 86 1013.1
20260505012703 16 218 8.0 17.7 0.00 0.00 0.00 85 1013.0
20260505011803 16 215 6.4 16.1 0.00 0.03 0.00 85 1013.1
20260505010903 16 219 6.4 14.5 0.00 0.03 0.00 84 1013.2
20260505010003 16 230 8.0 17.7 0.00 0.03 0.00 84 1013.3
20260505005403 17 220 6.4 17.7 0.00 0.03 0.00 84 1013.4
20260505004503 17 190 4.8 9.7 0.00 0.03 0.00 84 1013.4
20260505003603 17 206 4.8 9.7 0.00 0.03 0.00 84 1013.3
20260505002703 17 222 6.4 12.9 0.00 0.03 0.00 84 1013.6
20260505001803 16 217 6.4 14.5 0.00 0.03 0.00 84 1013.7
20260505000904 16 226 6.4 16.1 0.00 0.03 0.00 85 1013.5
20260505000003 16 218 4.8 9.7 0.00 0.03 0.00 85 1013.6
20260504235403 16 230 4.8 9.7 0.00 0.03 0.00 85 1013.7
20260504234504 16 218 3.2 8.0 0.00 0.03 0.00 86 1013.6
20260504233603 16 247 3.2 9.7 0.00 0.03 0.00 85 1013.6
20260504232703 16 223 3.2 16.1 0.00 0.03 0.00 86 1013.8
20260504231803 16 216 4.8 12.9 0.00 0.03 0.00 86 1013.9
20260504230903 16 228 4.8 14.5 0.00 0.03 0.00 87 1013.9
20260504230003 16 238 6.4 14.5 0.00 0.03 0.00 87 1013.8
20260504225403 16 218 4.8 9.7 0.00 0.03 0.00 87 1013.6
20260504224503 16 225 4.8 9.7 0.00 0.03 0.00 87 1013.7
20260504223603 16 233 3.2 12.9 0.00 0.03 0.00 87 1013.7
20260504222703 16 232 6.4 14.5 0.00 0.03 0.00 88 1013.9
20260504221803 16 219 4.8 14.5 0.00 0.03 0.00 88 1013.7
20260504220903 16 227 4.8 9.7 0.00 0.03 0.00 89 1013.9
20260504220004 16 227 8.0 16.1 0.00 0.03 0.00 89 1013.7
20260504215403 16 219 9.7 19.3 0.00 0.03 0.03 90 1013.9
20260504214503 16 214 8.0 16.1 0.00 0.03 0.03 90 1013.7
20260504213603 16 206 6.4 16.1 0.00 0.03 0.03 91 1013.9
20260504212704 16 196 6.4 9.7 0.00 0.03 0.03 91 1013.8
20260504211803 16 188 4.8 11.3 0.00 0.03 0.03 91 1013.9
20260504210903 16 196 4.8 9.7 0.00 0.03 0.03 91 1013.8
20260504210003 16 182 4.8 11.3 0.00 0.03 0.03 91 1013.8
20260504205403 16 182 6.4 11.3 0.00 0.03 0.03 91 1013.9
20260504204504 16 188 4.8 9.7 0.00 0.03 0.03 90 1013.7
20260504203603 16 185 6.4 12.9 0.00 0.03 0.03 90 1013.7
20260504201803 16 186 8.0 14.5 0.00 0.03 0.03 90 1013.5
20260504200903 16 201 8.0 16.1 0.00 0.03 0.03 90 1013.5